CRA718 MRLB-MROC

Flight info

Callsign CRA718
Flight time 0h 36m
Altitude 7000
Route PUXAS1S PUXAS
Aircraft C208/L-SDFGR/C

Departure

Time 2026-05-04 01:47
Airport Daniel Oduber Quirós International Airport (MRLB)

Arrival

Time 2026-05-04 02:23
Airport Juan Santamaría International Airport (MROC)
Time Latitude Longitude Altitude Speed Heading
2026-05-04 01:38 10.59870 -85.53818 261 ft 0 kts 70°
2026-05-04 01:43 10.59871 -85.53814 261 ft 2 kts 72°
2026-05-04 01:44 10.59843 -85.53801 262 ft 11 kts 226°
2026-05-04 01:44 10.59753 -85.53867 262 ft 18 kts 180°
2026-05-04 01:44 10.59642 -85.53829 265 ft 15 kts 158°
2026-05-04 01:44 10.59559 -85.53844 266 ft 13 kts 239°
2026-05-04 01:45 10.59518 -85.53951 265 ft 21 kts 248°
2026-05-04 01:45 10.59446 -85.54126 263 ft 31 kts 249°
2026-05-04 01:45 10.59267 -85.54619 260 ft 37 kts 248°
2026-05-04 01:46 10.59255 -85.54717 260 ft 1 kts 76°
2026-05-04 01:46 10.59258 -85.54692 260 ft 7 kts 69°
2026-05-04 01:46 10.59292 -85.54598 260 ft 35 kts 68°
2026-05-04 01:46 10.59446 -85.54153 263 ft 91 kts 70°
2026-05-04 01:47 10.59687 -85.53477 444 ft 104 kts 66°
2026-05-04 01:47 10.59951 -85.52792 699 ft 107 kts 63°
2026-05-04 01:47 10.60229 -85.52111 918 ft 112 kts 71°
2026-05-04 01:47 10.60492 -85.51297 976 ft 126 kts 71°
2026-05-04 01:48 10.60781 -85.50446 1139 ft 129 kts 70°
2026-05-04 01:48 10.61105 -85.49535 1283 ft 138 kts 71°
2026-05-04 01:48 10.61433 -85.48607 1475 ft 141 kts 71°
2026-05-04 01:48 10.61604 -85.47645 1660 ft 141 kts 103°
2026-05-04 01:49 10.61009 -85.46846 1864 ft 144 kts 138°
2026-05-04 01:49 10.60222 -85.46221 2049 ft 145 kts 138°
2026-05-04 01:49 10.59410 -85.45598 2241 ft 145 kts 137°
2026-05-04 01:49 10.58625 -85.44963 2431 ft 145 kts 136°
2026-05-04 01:50 10.57830 -85.44319 2616 ft 145 kts 136°
2026-05-04 01:50 10.57044 -85.43671 2806 ft 145 kts 135°
2026-05-04 01:50 10.56260 -85.43027 2996 ft 144 kts 135°
2026-05-04 01:50 10.55486 -85.42382 3182 ft 144 kts 135°
2026-05-04 01:51 10.54692 -85.41729 3377 ft 144 kts 134°
2026-05-04 01:51 10.53908 -85.41080 3567 ft 144 kts 134°
2026-05-04 01:51 10.53128 -85.40437 3749 ft 145 kts 134°
2026-05-04 01:51 10.52344 -85.39786 3936 ft 145 kts 134°
2026-05-04 01:52 10.51563 -85.39140 4120 ft 145 kts 134°
2026-05-04 01:52 10.50785 -85.38496 4301 ft 145 kts 133°
2026-05-04 01:52 10.49991 -85.37839 4487 ft 145 kts 134°
2026-05-04 01:52 10.49209 -85.37188 4669 ft 145 kts 133°
2026-05-04 01:53 10.49016 -85.37024 4715 ft 146 kts 133°
2026-05-04 01:53 10.48396 -85.36516 4858 ft 146 kts 133°
2026-05-04 01:53 10.47610 -85.35866 5045 ft 147 kts 134°
2026-05-04 01:53 10.46807 -85.35207 5237 ft 147 kts 134°
2026-05-04 01:54 10.46011 -85.34552 5431 ft 147 kts 132°
2026-05-04 01:54 10.45215 -85.33886 5623 ft 147 kts 132°
2026-05-04 01:54 10.44418 -85.33232 5816 ft 148 kts 132°
2026-05-04 01:54 10.43625 -85.32578 6010 ft 148 kts 132°
2026-05-04 01:55 10.42816 -85.31910 6205 ft 148 kts 132°
2026-05-04 01:55 10.42024 -85.31255 6399 ft 148 kts 131°
2026-05-04 01:55 10.41219 -85.30591 6595 ft 147 kts 131°
2026-05-04 01:55 10.40432 -85.29938 6787 ft 147 kts 132°
2026-05-04 01:56 10.39634 -85.29282 6979 ft 146 kts 131°
2026-05-04 01:56 10.38843 -85.28629 7171 ft 145 kts 132°
2026-05-04 01:56 10.38064 -85.27983 7359 ft 145 kts 132°
2026-05-04 01:56 10.37273 -85.27331 7523 ft 146 kts 132°
2026-05-04 01:57 10.36450 -85.26640 7486 ft 159 kts 133°
2026-05-04 01:57 10.35562 -85.25906 7482 ft 166 kts 133°
2026-05-04 01:57 10.34661 -85.25164 7478 ft 169 kts 133°
2026-05-04 01:57 10.33736 -85.24403 7477 ft 171 kts 134°
2026-05-04 01:58 10.32798 -85.23632 7476 ft 172 kts 134°
2026-05-04 01:58 10.31876 -85.22865 7473 ft 172 kts 131°
2026-05-04 01:58 10.31062 -85.21973 7475 ft 170 kts 124°
2026-05-04 01:58 10.30277 -85.21066 7475 ft 171 kts 125°
2026-05-04 01:59 10.29481 -85.20145 7475 ft 174 kts 124°
2026-05-04 01:59 10.28678 -85.19218 7475 ft 175 kts 124°
2026-05-04 01:59 10.27868 -85.18280 7474 ft 176 kts 124°
2026-05-04 01:59 10.27050 -85.17337 7473 ft 177 kts 124°
2026-05-04 02:00 10.26231 -85.16392 7472 ft 178 kts 124°
2026-05-04 02:00 10.25424 -85.15454 7471 ft 178 kts 124°
2026-05-04 02:00 10.24595 -85.14499 7473 ft 178 kts 124°
2026-05-04 02:00 10.23775 -85.13554 7474 ft 178 kts 125°
2026-05-04 02:01 10.22954 -85.12606 7474 ft 178 kts 124°
2026-05-04 02:01 10.22134 -85.11663 7472 ft 178 kts 125°
2026-05-04 02:01 10.21303 -85.10708 7473 ft 179 kts 125°
2026-05-04 02:01 10.20476 -85.09757 7474 ft 179 kts 125°
2026-05-04 02:02 10.19650 -85.08810 7474 ft 179 kts 125°
2026-05-04 02:02 10.18823 -85.07861 7474 ft 179 kts 125°
2026-05-04 02:02 10.17999 -85.06916 7475 ft 179 kts 125°
2026-05-04 02:02 10.17178 -85.05956 7478 ft 177 kts 119°
2026-05-04 02:03 10.16714 -85.04825 7484 ft 171 kts 102°
2026-05-04 02:03 10.16318 -85.03699 7479 ft 172 kts 106°
2026-05-04 02:03 10.15886 -85.02556 7483 ft 172 kts 105°
2026-05-04 02:03 10.15475 -85.01412 7483 ft 172 kts 104°
2026-05-04 02:04 10.15067 -85.00266 7489 ft 172 kts 104°
2026-05-04 02:04 10.14669 -84.99129 7504 ft 172 kts 104°
2026-05-04 02:04 10.14268 -84.97987 7510 ft 172 kts 104°
2026-05-04 02:04 10.13868 -84.96844 7507 ft 173 kts 104°
2026-05-04 02:05 10.13463 -84.95678 7511 ft 173 kts 103°
2026-05-04 02:05 10.13067 -84.94532 7514 ft 173 kts 103°
2026-05-04 02:05 10.12674 -84.93380 7522 ft 172 kts 103°
2026-05-04 02:05 10.12276 -84.92230 7536 ft 172 kts 104°
2026-05-04 02:06 10.11882 -84.91091 7541 ft 171 kts 104°
2026-05-04 02:06 10.11484 -84.89940 7544 ft 172 kts 104°
2026-05-04 02:06 10.11091 -84.88802 7546 ft 172 kts 104°
2026-05-04 02:06 10.10691 -84.87646 7548 ft 172 kts 104°
2026-05-04 02:07 10.10300 -84.86509 7547 ft 172 kts 104°
2026-05-04 02:07 10.09899 -84.85357 7549 ft 172 kts 104°
2026-05-04 02:07 10.09503 -84.84205 7551 ft 172 kts 104°
2026-05-04 02:07 10.09109 -84.83064 7554 ft 172 kts 104°
2026-05-04 02:08 10.08709 -84.81911 7559 ft 173 kts 104°
2026-05-04 02:08 10.08308 -84.80756 7545 ft 174 kts 104°
2026-05-04 02:08 10.07906 -84.79600 7547 ft 173 kts 104°
2026-05-04 02:08 10.07508 -84.78448 7547 ft 173 kts 104°
2026-05-04 02:09 10.07112 -84.77294 7553 ft 172 kts 104°
2026-05-04 02:09 10.06712 -84.76141 7561 ft 172 kts 104°
2026-05-04 02:09 10.06315 -84.74998 7564 ft 171 kts 104°
2026-05-04 02:09 10.05919 -84.73854 7566 ft 172 kts 104°
2026-05-04 02:10 10.05526 -84.72714 7556 ft 172 kts 104°
2026-05-04 02:10 10.05129 -84.71575 7568 ft 171 kts 104°
2026-05-04 02:10 10.04730 -84.70430 7573 ft 171 kts 104°
2026-05-04 02:10 10.04325 -84.69284 7567 ft 172 kts 105°
2026-05-04 02:11 10.03921 -84.68146 7576 ft 172 kts 104°
2026-05-04 02:11 10.03517 -84.66996 7581 ft 172 kts 104°
2026-05-04 02:11 10.03122 -84.65855 7587 ft 172 kts 104°
2026-05-04 02:11 10.02722 -84.64696 7589 ft 172 kts 105°
2026-05-04 02:12 10.02320 -84.63551 7593 ft 173 kts 104°
2026-05-04 02:12 10.01923 -84.62395 7598 ft 173 kts 104°
2026-05-04 02:12 10.01526 -84.61252 7605 ft 173 kts 104°
2026-05-04 02:12 10.01122 -84.60093 7601 ft 173 kts 104°
2026-05-04 02:13 10.00724 -84.58933 7599 ft 173 kts 104°
2026-05-04 02:13 10.00326 -84.57786 7610 ft 173 kts 105°
2026-05-04 02:13 9.99927 -84.56640 7626 ft 173 kts 105°
2026-05-04 02:13 9.99524 -84.55485 7626 ft 174 kts 104°
2026-05-04 02:14 9.99121 -84.54324 7632 ft 173 kts 104°
2026-05-04 02:14 9.98705 -84.53185 7640 ft 175 kts 111°
2026-05-04 02:14 9.97841 -84.52276 7653 ft 183 kts 144°
2026-05-04 02:14 9.96741 -84.51633 7654 ft 183 kts 144°
2026-05-04 02:15 9.95631 -84.50981 7661 ft 183 kts 144°
2026-05-04 02:15 9.94513 -84.50321 7662 ft 184 kts 144°
2026-05-04 02:15 9.93416 -84.49654 7648 ft 184 kts 143°
2026-05-04 02:15 9.92300 -84.48981 7646 ft 184 kts 143°
2026-05-04 02:16 9.91205 -84.48307 7650 ft 182 kts 139°
2026-05-04 02:16 9.90620 -84.47289 7670 ft 168 kts 91°
2026-05-04 02:16 9.90560 -84.46125 7657 ft 159 kts 89°
2026-05-04 02:16 9.90638 -84.45023 7475 ft 158 kts 74°
2026-05-04 02:17 9.90921 -84.43935 7279 ft 157 kts 72°
2026-05-04 02:17 9.91224 -84.42896 7079 ft 152 kts 70°
2026-05-04 02:17 9.91549 -84.41897 6886 ft 149 kts 69°
2026-05-04 02:17 9.91894 -84.40900 6698 ft 148 kts 68°
2026-05-04 02:18 9.92243 -84.39928 6514 ft 147 kts 67°
2026-05-04 02:18 9.92603 -84.38953 6331 ft 146 kts 67°
2026-05-04 02:18 9.92961 -84.37991 6131 ft 147 kts 68°
2026-05-04 02:18 9.93327 -84.37015 5939 ft 147 kts 68°
2026-05-04 02:19 9.93688 -84.36056 5744 ft 147 kts 68°
2026-05-04 02:19 9.94053 -84.35075 5550 ft 148 kts 68°
2026-05-04 02:19 9.94415 -84.34100 5357 ft 148 kts 68°
2026-05-04 02:19 9.94780 -84.33128 5162 ft 148 kts 68°
2026-05-04 02:20 9.95142 -84.32150 4966 ft 149 kts 69°
2026-05-04 02:20 9.95515 -84.31165 4767 ft 150 kts 68°
2026-05-04 02:20 9.95888 -84.30175 4567 ft 150 kts 69°
2026-05-04 02:20 9.96265 -84.29179 4369 ft 151 kts 69°
2026-05-04 02:21 9.96646 -84.28170 4169 ft 152 kts 69°
2026-05-04 02:21 9.97018 -84.27166 3969 ft 153 kts 69°
2026-05-04 02:21 9.97403 -84.26157 3771 ft 153 kts 70°
2026-05-04 02:21 9.97773 -84.25160 3570 ft 143 kts 69°
2026-05-04 02:22 9.98100 -84.24294 3395 ft 123 kts 69°
2026-05-04 02:22 9.98389 -84.23539 3223 ft 108 kts 69°
2026-05-04 02:22 9.98660 -84.22855 3064 ft 96 kts 71°
2026-05-04 02:22 9.98885 -84.22247 2967 ft 91 kts 70°
2026-05-04 02:23 9.99101 -84.21655 2960 ft 87 kts 69°
2026-05-04 02:23 9.99274 -84.21188 2983 ft 51 kts 69°
2026-05-04 02:23 9.99385 -84.20898 2995 ft 39 kts 70°
2026-05-04 02:23 9.99472 -84.20667 3007 ft 31 kts 69°
2026-05-04 02:24 9.99541 -84.20482 3017 ft 24 kts 68°
2026-05-04 02:24 9.99628 -84.20452 3022 ft 13 kts 304°
2026-05-04 02:24 9.99609 -84.20564 3017 ft 20 kts 249°
2026-05-04 02:24 9.99549 -84.20721 3007 ft 26 kts 248°
2026-05-04 02:25 9.99479 -84.20910 2998 ft 30 kts 249°
2026-05-04 02:25 9.99405 -84.21104 2988 ft 24 kts 249°
2026-05-04 02:25 9.99418 -84.21198 2984 ft 12 kts 332°
2026-05-04 02:25 9.99486 -84.21243 2981 ft 9 kts 288°
2026-05-04 02:26 9.99467 -84.21285 2979 ft 3 kts 146°
2026-05-04 02:26 9.99445 -84.21268 2980 ft 0 kts 157°
2026-05-04 02:26 9.99441 -84.21266 2980 ft 0 kts 166°
2026-05-04 02:26 9.99418 -84.21259 2980 ft 3 kts 158°
2026-05-04 02:27 9.99416 -84.21259 2980 ft 0 kts 158°